Previsão horária em Allaguvat

Hoje, 25 Junho, Sexta-feira

Tempo Temperatura Precipitação Vento Pressão Humidade
00:00 +19°C° 0 mm 1 m/s 748 mmHg 65%
01:00 +18°C° 0 mm 1 m/s 747 mmHg 65%
02:00 +18°C° 0 mm 1 m/s 747 mmHg 65%
03:00 +18°C° 0 mm 1 m/s 747 mmHg 66%
04:00 +18°C° 0 mm 1 m/s 747 mmHg 67%
05:00 +20°C° 0.2 mm 1 m/s 747 mmHg 69%
06:00 +21°C° 0.2 mm 1 m/s 747 mmHg 70%
07:00 +23°C° 0.2 mm 1 m/s 747 mmHg 72%
08:00 +25°C° 0.1 mm 2 m/s 747 mmHg 69%
09:00 +27°C° 0.1 mm 2 m/s 746 mmHg 65%
10:00 +29°C° 0.1 mm 3 m/s 746 mmHg 62%
11:00 +30°C° 0.1 mm 4 m/s 746 mmHg 58%
12:00 +32°C° 0.1 mm 4 m/s 746 mmHg 54%
13:00 +33°C° 0.1 mm 5 m/s 746 mmHg 50%
14:00 +33°C° 0 mm 5 m/s 746 mmHg 50%
15:00 +33°C° 0 mm 5 m/s 745 mmHg 49%
16:00 +33°C° 0 mm 5 m/s 745 mmHg 48%
17:00 +32°C° 0 mm 4 m/s 745 mmHg 55%
18:00 +30°C° 0 mm 3 m/s 745 mmHg 61%
19:00 +29°C° 0 mm 2 m/s 745 mmHg 68%
20:00 +26°C° 1.2 mm 3 m/s 745 mmHg 76%
21:00 +23°C° 1.2 mm 4 m/s 745 mmHg 84%
22:00 +20°C° 1.2 mm 5 m/s 746 mmHg 92%
23:00 +20°C° 0.3 mm 4 m/s 745 mmHg 91%

Amanhã, 26 Junho, Sábado

Tempo Temperatura Precipitação Vento Pressão Humidade
00:00 +20°C° 0.3 mm 2 m/s 745 mmHg 90%
01:00 +20°C° 0.3 mm 1 m/s 745 mmHg 89%
02:00 +20°C° 0 mm 1 m/s 745 mmHg 89%
03:00 +19°C° 0 mm 1 m/s 745 mmHg 88%
04:00 +19°C° 0 mm 1 m/s 745 mmHg 88%
05:00 +20°C° 0 mm 1 m/s 745 mmHg 85%
06:00 +22°C° 0 mm 1 m/s 745 mmHg 83%
07:00 +23°C° 0 mm 1 m/s 745 mmHg 80%
08:00 +25°C° 0 mm 1 m/s 745 mmHg 73%
09:00 +26°C° 0 mm 1 m/s 745 mmHg 66%
10:00 +28°C° 0 mm 1 m/s 745 mmHg 60%
11:00 +29°C° 0 mm 2 m/s 745 mmHg 58%
12:00 +30°C° 0 mm 2 m/s 745 mmHg 56%
13:00 +31°C° 0 mm 3 m/s 744 mmHg 54%
14:00 +33°C° 0 mm 3 m/s 744 mmHg 53%
15:00 +33°C° 0 mm 3 m/s 744 mmHg 52%
16:00 +33°C° 0 mm 4 m/s 744 mmHg 50%
17:00 +31°C° 0 mm 3 m/s 744 mmHg 56%
18:00 +30°C° 0 mm 3 m/s 744 mmHg 61%
19:00 +29°C° 0 mm 3 m/s 744 mmHg 67%
20:00 +27°C° 0.1 mm 2 m/s 744 mmHg 72%
21:00 +25°C° 0.1 mm 2 m/s 744 mmHg 78%
22:00 +24°C° 0.1 mm 1 m/s 744 mmHg 84%
23:00 +23°C° 0.1 mm 1 m/s 744 mmHg 85%

Depois de amanhã, 27 Junho, Domingo

Tempo Temperatura Precipitação Vento Pressão Humidade
00:00 +23°C° 0.1 mm 1 m/s 744 mmHg 86%
01:00 +20°C° 0.1 mm 0 m/s 744 mmHg 87%
02:00 +20°C° 0 mm 0 m/s 744 mmHg 88%
03:00 +19°C° 0 mm 0 m/s 744 mmHg 89%
04:00 +19°C° 0 mm 0 m/s 744 mmHg 89%
05:00 +20°C° 0 mm 0 m/s 744 mmHg 85%
06:00 +22°C° 0 mm 0 m/s 745 mmHg 81%
07:00 +23°C° 0 mm 0 m/s 745 mmHg 78%
08:00 +27°C° 0 mm 1 m/s 745 mmHg 71%
09:00 +28°C° 0 mm 1 m/s 745 mmHg 65%
10:00 +29°C° 0 mm 2 m/s 745 mmHg 58%
11:00 +30°C° 0.2 mm 2 m/s 745 mmHg 55%
12:00 +31°C° 0.2 mm 2 m/s 745 mmHg 52%
13:00 +31°C° 0.2 mm 3 m/s 745 mmHg 49%
14:00 +33°C° 0 mm 3 m/s 745 mmHg 47%
15:00 +33°C° 0 mm 3 m/s 745 mmHg 46%
16:00 +33°C° 0 mm 3 m/s 745 mmHg 45%
17:00 +31°C° 0 mm 3 m/s 745 mmHg 50%
18:00 +30°C° 0 mm 2 m/s 745 mmHg 56%
19:00 +29°C° 0 mm 2 m/s 745 mmHg 62%
20:00 +28°C° 0 mm 2 m/s 745 mmHg 65%
21:00 +26°C° 0 mm 2 m/s 745 mmHg 68%
22:00 +25°C° 0 mm 1 m/s 745 mmHg 71%
23:00 +24°C° 0 mm 1 m/s 745 mmHg 74%

28 Junho, Segunda-feira

Tempo Temperatura Precipitação Vento Pressão Humidade
00:00 +23°C° 0 mm 1 m/s 745 mmHg 77%
01:00 +22°C° 0 mm 1 m/s 745 mmHg 80%
02:00 +22°C° 0 mm 1 m/s 745 mmHg 82%
03:00 +21°C° 0 mm 1 m/s 746 mmHg 83%
04:00 +21°C° 0 mm 1 m/s 746 mmHg 84%
05:00 +22°C° 0 mm 1 m/s 746 mmHg 79%
06:00 +24°C° 0 mm 1 m/s 746 mmHg 74%
07:00 +25°C° 0 mm 1 m/s 746 mmHg 69%
08:00 +27°C° 0 mm 1 m/s 746 mmHg 63%
09:00 +28°C° 0 mm 1 m/s 746 mmHg 57%
10:00 +30°C° 0 mm 1 m/s 746 mmHg 52%
11:00 +30°C° 0 mm 1 m/s 746 mmHg 48%
12:00 +31°C° 0 mm 1 m/s 746 mmHg 44%
13:00 +32°C° 0 mm 1 m/s 746 mmHg 41%
14:00 +32°C° 0 mm 1 m/s 746 mmHg 40%
15:00 +34°C° 0 mm 2 m/s 746 mmHg 40%
16:00 +34°C° 0 mm 2 m/s 746 mmHg 39%
17:00 +32°C° 0 mm 2 m/s 746 mmHg 45%
18:00 +31°C° 0 mm 1 m/s 745 mmHg 52%
19:00 +30°C° 0 mm 1 m/s 745 mmHg 58%
20:00 +28°C° 0 mm 1 m/s 745 mmHg 61%
21:00 +26°C° 0 mm 1 m/s 745 mmHg 64%
22:00 +25°C° 0 mm 1 m/s 745 mmHg 67%
23:00 +24°C° 0 mm 1 m/s 745 mmHg 70%

29 Junho, Terça-feira

Tempo Temperatura Precipitação Vento Pressão Humidade
00:00 +23°C° 0 mm 1 m/s 745 mmHg 73%
01:00 +23°C° 0 mm 2 m/s 745 mmHg 76%
02:00 +21°C° 0.1 mm 2 m/s 745 mmHg 80%
03:00 +20°C° 0.1 mm 2 m/s 745 mmHg 83%
04:00 +20°C° 0.1 mm 2 m/s 745 mmHg 87%
05:00 +21°C° 0 mm 2 m/s 745 mmHg 82%
06:00 +24°C° 0 mm 2 m/s 745 mmHg 77%
07:00 +25°C° 0 mm 2 m/s 745 mmHg 72%
08:00 +27°C° 0 mm 3 m/s 745 mmHg 65%
09:00 +29°C° 0 mm 3 m/s 745 mmHg 59%
10:00 +30°C° 0 mm 3 m/s 745 mmHg 52%
11:00 +31°C° 0 mm 3 m/s 745 mmHg 49%
12:00 +32°C° 0 mm 2 m/s 745 mmHg 46%
13:00 +34°C° 0 mm 2 m/s 745 mmHg 43%
14:00 +35°C° 0 mm 2 m/s 745 mmHg 41%
15:00 +35°C° 0 mm 2 m/s 745 mmHg 40%
16:00 +35°C° 0 mm 2 m/s 744 mmHg 39%
17:00 +33°C° 0 mm 1 m/s 744 mmHg 44%
18:00 +33°C° 0 mm 1 m/s 744 mmHg 49%
19:00 +32°C° 0 mm 1 m/s 744 mmHg 54%
20:00 +30°C° 0 mm 1 m/s 744 mmHg 59%
21:00 +28°C° 0 mm 1 m/s 744 mmHg 64%
22:00 +25°C° 0 mm 2 m/s 744 mmHg 69%
23:00 +25°C° 0 mm 2 m/s 744 mmHg 71%

30 Junho, Quarta-feira

Tempo Temperatura Precipitação Vento Pressão Humidade
00:00 +24°C° 0 mm 1 m/s 744 mmHg 73%
01:00 +23°C° 0 mm 1 m/s 744 mmHg 76%
02:00 +23°C° 0 mm 1 m/s 744 mmHg 77%
03:00 +22°C° 0 mm 1 m/s 744 mmHg 78%
04:00 +22°C° 0 mm 1 m/s 744 mmHg 80%
05:00 +23°C° 0 mm 1 m/s 744 mmHg 75%
06:00 +25°C° 0 mm 1 m/s 744 mmHg 71%
07:00 +27°C° 0 mm 1 m/s 744 mmHg 66%
08:00 +28°C° 0 mm 1 m/s 744 mmHg 60%
09:00 +30°C° 0 mm 2 m/s 744 mmHg 54%
10:00 +32°C° 0 mm 2 m/s 744 mmHg 47%
11:00 +35°C° 0 mm 2 m/s 743 mmHg 44%
12:00 +36°C° 0 mm 2 m/s 743 mmHg 40%
13:00 +37°C° 0 mm 2 m/s 743 mmHg 36%
14:00 +38°C° 0 mm 2 m/s 742 mmHg 34%
15:00 +39°C° 0 mm 2 m/s 742 mmHg 32%
16:00 +39°C° 0 mm 2 m/s 742 mmHg 30%
17:00 +38°C° 0 mm 2 m/s 741 mmHg 35%
18:00 +37°C° 0 mm 2 m/s 741 mmHg 39%
19:00 +36°C° 0 mm 2 m/s 741 mmHg 44%
20:00 +33°C° 0 mm 3 m/s 741 mmHg 49%
21:00 +30°C° 0 mm 3 m/s 741 mmHg 53%
22:00 +28°C° 0 mm 3 m/s 741 mmHg 57%
23:00 +28°C° 0 mm 3 m/s 741 mmHg 60%
Mostrar mais